Regional Weather Roundup
Issued by NWS

Home | Current Version | Previous Version | Text Only | Print | Product List | Glossary On
Versions: 1 2 3 4 5 6 7 8 9 10 11 12 13 14 15 16 17 18 19 20 21 22 23 24 25 26 27 28 29 30 31 32 33 34 35 36 37 38 39 40 41 42 43 44 45 46 47 48 49 50
000
ASUS42 KFFC 030110
RWRGA
WEATHER ROUNDUP FOR GEORGIA
NATIONAL WEATHER SERVICE PEACHTREE CITY GA
900 PM EDT SUN AUG 02 2015

NOTE: "FAIR" INDICATES FEW OR NO CLOUDS BELOW 12,000 FEET WITH NO
SIGNIFICANT WEATHER AND/OR OBSTRUCTIONS TO VISIBILITY.

* = USE WITH CAUTION. THE STATIONS MARKED WITH AN ASTERISK MAY NOT
REPORT WEATHER SUCH AS PRECIPITATION, FOG, OR THUNDER AND ARE NOT
QUALITY CONTROLLED BY NWS.

THE REMARK "TC" DENOTES TEMPERATURE READING IN DEGREES CELSIUS.

GAZ001>058-030200-
NORTH GEORGIA

CITY           SKY/WX    TMP DP  RH WIND       PRES   REMARKS
ATLANTA        MOCLDY    88  63  43 CALM      29.89S
ATHENS         CLOUDY    81  67  62 CALM      29.90F
CHAMBLEE       MOCLDY    88  60  38 E6        29.90R
PEACHTREE CITY MOCLDY    82  72  71 CALM      29.89R
ROME           PTCLDY    83  63  50 N3        29.88R
WEST ATLANTA   MOCLDY    86  62  44 N5        29.89R
GAINESVILLE    MOCLDY    84  59  42 NE5       29.95R
CARTERSVILLE   MOCLDY    75  66  73 CALM      29.90R


CITY           SKY/WX    TMP DP  RH WIND       PRES   REMARKS
DALTON*        MOCLDY    79  68  69 N3        29.90S
LAWRENCEVILLE* PTCLDY    84  57  39 CALM      29.90R
MARIETTA       MOCLDY    86  63  46 VRB3      29.91R
KENNESAW*      PTCLDY    86  63  45 CALM      29.92R
BLAIRSVILLE*     N/A     73  48  40 CALM      29.98S
$$

GAZ059>098-102>109-030200-
CENTRAL GEORGIA

CITY           SKY/WX    TMP DP  RH WIND       PRES   REMARKS
AUGUSTA-BUSH   PTCLDY    77  70  79 CALM      29.88S
AUGUSTA-DANIEL MOCLDY    80  69  69 SE3       29.90S
COLUMBUS       CLEAR     85  70  60 CALM      29.85R
MACON          CLEAR     83  73  72 SE6       29.86R
ROBINS AFB     CLEAR     83  73  69 SE10      29.85S


CITY           SKY/WX    TMP DP  RH WIND       PRES   REMARKS
LAGRANGE*      PTCLDY    86  78  78 CALM      29.87S HX  98
SYLVANIA*      PTCLDY    80  77  90 CALM      29.90R
MILLEDGEVILLE* MOCLDY    79  70  73 NE9       29.90R
$$

GAZ099>101-110>166-030200-
SOUTH GEORGIA

CITY           SKY/WX    TMP DP  RH WIND       PRES   REMARKS
SAVANNAH       MOCLDY    76  73  91 SE5       29.89S
VALDOSTA       PTCLDY    79  77  94 NE5       29.84S
ALMA           PTCLDY    78  74  87 SE6       29.86S
ST SIMONS      CLOUDY    80  74  81 S8        29.88S
ALBANY         PTCLDY    81  75  82 CALM      29.86R
HUNTER AFB     PTCLDY    76  76 100 SE2       29.88R
MOODY AFB      PTCLDY    77  75  93 NE5       29.84S
BRUNSWICK      CLOUDY    79  75  89 SE3       29.89R


CITY           SKY/WX    TMP DP  RH WIND       PRES   REMARKS
BAINBRIDGE*    PTCLDY    86  77  74 CALM      29.85R HX  97
MOULTRIE*      CLEAR     81  73  78 CALM      29.87R
VIDALIA*       MOCLDY    77  73  88 E5        29.88R
WAYCROSS*      CLOUDY    81  78  91 SE7       29.86S
DOUGLAS*       PTCLDY    79  75  89 CALM      29.87F
$$



USA.gov is the U.S. government's official web portal to all federal, state and local government web resources and services.